When you browse on this site, cookies collect data to enhance your experience and personalize the content and advertising you see.
Visit our Privacy Policy to learn more. By continuing to use the site, you agree to this use of cookies and data.
  • In Romania
  • List of Countries
  • For 7 days
  • Water Temperature
  • Weather Map
  • Weather Widgets
  • user-avatar
    Login

    Hourly Weather Ramushki

    Today, 24 August, Saturday

    Time Temperature Precipitation Wind Pressure Humidity
    00:00 +18°C° 0 mm 3 mps 764 mmHg 77%
    01:00 +17°C° 0 mm 3 mps 764 mmHg 78%
    02:00 +17°C° 0 mm 3 mps 764 mmHg 79%
    03:00 +17°C° 0 mm 3 mps 764 mmHg 78%
    04:00 +17°C° 0 mm 3 mps 764 mmHg 77%
    05:00 +17°C° 0 mm 3 mps 764 mmHg 76%
    06:00 +17°C° 0 mm 3 mps 764 mmHg 76%
    07:00 +18°C° 0 mm 3 mps 764 mmHg 72%
    08:00 +19°C° 0 mm 4 mps 764 mmHg 68%
    09:00 +21°C° 0 mm 4 mps 764 mmHg 65%
    10:00 +22°C° 0 mm 4 mps 764 mmHg 60%
    11:00 +23°C° 0 mm 4 mps 763 mmHg 54%
    12:00 +25°C° 0 mm 4 mps 763 mmHg 49%
    13:00 +25°C° 0 mm 4 mps 763 mmHg 46%
    14:00 +26°C° 0 mm 3 mps 763 mmHg 43%
    15:00 +26°C° 0 mm 3 mps 763 mmHg 40%
    16:00 +25°C° 0 mm 3 mps 762 mmHg 45%
    17:00 +24°C° 0 mm 2 mps 762 mmHg 50%
    18:00 +23°C° 0 mm 2 mps 762 mmHg 55%
    19:00 +20°C° 0 mm 2 mps 762 mmHg 58%
    20:00 +19°C° 0 mm 2 mps 762 mmHg 62%
    21:00 +18°C° 0 mm 1 mps 762 mmHg 65%
    22:00 +18°C° 0 mm 1 mps 762 mmHg 67%
    23:00 +16°C° 0 mm 1 mps 761 mmHg 70%

    Tomorrow, 25 August, Sunday

    Time Temperature Precipitation Wind Pressure Humidity
    00:00 +15°C° 0 mm 1 mps 761 mmHg 72%
    01:00 +14°C° 0 mm 0 mps 761 mmHg 74%
    02:00 +14°C° 0 mm 0 mps 761 mmHg 76%
    03:00 +13°C° 0 mm 0 mps 761 mmHg 78%
    04:00 +14°C° 0 mm 0 mps 761 mmHg 76%
    05:00 +15°C° 0 mm 0 mps 760 mmHg 74%
    06:00 +15°C° 0 mm 0 mps 760 mmHg 72%
    07:00 +19°C° 0 mm 1 mps 760 mmHg 65%
    08:00 +20°C° 0 mm 2 mps 760 mmHg 58%
    09:00 +23°C° 0 mm 2 mps 760 mmHg 51%
    10:00 +24°C° 0 mm 3 mps 759 mmHg 47%
    11:00 +25°C° 0 mm 4 mps 759 mmHg 44%
    12:00 +26°C° 0 mm 4 mps 758 mmHg 41%
    13:00 +26°C° 0 mm 5 mps 759 mmHg 45%
    14:00 +26°C° 0 mm 5 mps 759 mmHg 48%
    15:00 +26°C° 0 mm 6 mps 759 mmHg 52%
    16:00 +23°C° 0 mm 5 mps 759 mmHg 55%
    17:00 +22°C° 0 mm 5 mps 759 mmHg 58%
    18:00 +20°C° 0 mm 5 mps 759 mmHg 60%
    19:00 +19°C° 0 mm 5 mps 759 mmHg 64%
    20:00 +17°C° 0 mm 4 mps 760 mmHg 68%
    21:00 +15°C° 0 mm 4 mps 760 mmHg 71%
    22:00 +14°C° 0 mm 4 mps 760 mmHg 74%
    23:00 +14°C° 0 mm 4 mps 761 mmHg 78%

    Day after tomorrow, 26 August, Monday

    Time Temperature Precipitation Wind Pressure Humidity
    00:00 +14°C° 0 mm 5 mps 761 mmHg 81%
    01:00 +13°C° 0 mm 5 mps 761 mmHg 81%
    02:00 +12°C° 0 mm 4 mps 762 mmHg 81%
    03:00 +12°C° 0 mm 4 mps 762 mmHg 81%
    04:00 +12°C° 0 mm 4 mps 763 mmHg 80%
    05:00 +12°C° 0 mm 5 mps 763 mmHg 80%
    06:00 +12°C° 0 mm 5 mps 763 mmHg 79%
    07:00 +13°C° 0 mm 5 mps 763 mmHg 72%
    08:00 +14°C° 0 mm 6 mps 764 mmHg 64%
    09:00 +16°C° 0 mm 6 mps 764 mmHg 57%
    10:00 +17°C° 0 mm 6 mps 764 mmHg 53%
    11:00 +19°C° 0 mm 6 mps 764 mmHg 50%
    12:00 +20°C° 0 mm 5 mps 764 mmHg 46%
    13:00 +20°C° 0 mm 5 mps 764 mmHg 46%
    14:00 +20°C° 0 mm 5 mps 764 mmHg 46%
    15:00 +20°C° 0 mm 5 mps 764 mmHg 46%
    16:00 +19°C° 0 mm 5 mps 764 mmHg 51%
    17:00 +18°C° 0 mm 4 mps 764 mmHg 56%
    18:00 +17°C° 0 mm 3 mps 763 mmHg 61%
    19:00 +16°C° 0 mm 2 mps 764 mmHg 66%
    20:00 +14°C° 0 mm 2 mps 764 mmHg 70%
    21:00 +13°C° 0 mm 1 mps 764 mmHg 75%
    22:00 +13°C° 0 mm 1 mps 764 mmHg 76%
    23:00 +12°C° 0 mm 1 mps 763 mmHg 78%

    27 August, Tuesday

    Time Temperature Precipitation Wind Pressure Humidity
    00:00 +12°C° 0 mm 1 mps 763 mmHg 79%
    01:00 +12°C° 0 mm 1 mps 763 mmHg 80%
    02:00 +10°C° 0 mm 2 mps 763 mmHg 81%
    03:00 +10°C° 0 mm 2 mps 762 mmHg 82%
    04:00 +10°C° 0 mm 2 mps 762 mmHg 81%
    05:00 +11°C° 0 mm 3 mps 762 mmHg 80%
    06:00 +11°C° 0 mm 3 mps 761 mmHg 79%
    07:00 +13°C° 0 mm 3 mps 761 mmHg 71%
    08:00 +15°C° 0 mm 4 mps 760 mmHg 63%
    09:00 +19°C° 0 mm 5 mps 760 mmHg 55%
    10:00 +20°C° 0 mm 5 mps 759 mmHg 52%
    11:00 +21°C° 0 mm 6 mps 759 mmHg 48%
    12:00 +22°C° 0 mm 6 mps 758 mmHg 45%
    13:00 +22°C° 0 mm 6 mps 757 mmHg 45%
    14:00 +22°C° 0 mm 6 mps 757 mmHg 45%
    15:00 +23°C° 0 mm 6 mps 756 mmHg 44%
    16:00 +22°C° 0 mm 6 mps 755 mmHg 48%
    17:00 +21°C° 0 mm 5 mps 754 mmHg 52%
    18:00 +20°C° 0 mm 4 mps 754 mmHg 56%
    19:00 +19°C° 0 mm 4 mps 753 mmHg 57%
    20:00 +19°C° 0 mm 5 mps 752 mmHg 59%
    21:00 +17°C° 0 mm 5 mps 751 mmHg 60%
    22:00 +16°C° 0.5 mm 5 mps 751 mmHg 68%
    23:00 +17°C° 0.5 mm 4 mps 750 mmHg 75%

    28 August, Wednesday

    Time Temperature Precipitation Wind Pressure Humidity
    00:00 +15°C° 0.5 mm 4 mps 749 mmHg 83%
    01:00 +14°C° 1.1 mm 5 mps 749 mmHg 84%
    02:00 +14°C° 1.1 mm 5 mps 748 mmHg 86%
    03:00 +14°C° 1.1 mm 6 mps 747 mmHg 88%
    04:00 +13°C° 1 mm 6 mps 747 mmHg 88%
    05:00 +11°C° 1 mm 7 mps 747 mmHg 88%
    06:00 +10°C° 1 mm 7 mps 747 mmHg 88%
    07:00 +10°C° 1.2 mm 7 mps 747 mmHg 87%
    08:00 +9°C° 1.2 mm 7 mps 747 mmHg 85%
    09:00 +8°C° 1.2 mm 7 mps 748 mmHg 84%
    10:00 +8°C° 0.1 mm 7 mps 748 mmHg 81%
    11:00 +8°C° 0.1 mm 7 mps 748 mmHg 77%
    12:00 +7°C° 0.1 mm 8 mps 749 mmHg 74%
    13:00 +7°C° 0.2 mm 8 mps 749 mmHg 75%
    14:00 +8°C° 0.2 mm 7 mps 749 mmHg 77%
    15:00 +6°C° 0.2 mm 7 mps 749 mmHg 78%
    16:00 +8°C° 0.5 mm 7 mps 749 mmHg 77%
    17:00 +8°C° 0.5 mm 6 mps 749 mmHg 77%
    18:00 +8°C° 0.5 mm 6 mps 749 mmHg 76%
    19:00 +9°C° 0 mm 6 mps 749 mmHg 76%
    20:00 +9°C° 0 mm 6 mps 749 mmHg 76%
    21:00 +9°C° 0 mm 6 mps 749 mmHg 76%
    22:00 +9°C° 0 mm 7 mps 749 mmHg 77%
    23:00 +9°C° 0 mm 7 mps 749 mmHg 78%

    29 August, Thursday

    Time Temperature Precipitation Wind Pressure Humidity
    00:00 +9°C° 0 mm 7 mps 749 mmHg 79%
    01:00 +9°C° 0 mm 7 mps 749 mmHg 77%
    02:00 +9°C° 0 mm 7 mps 749 mmHg 75%
    03:00 +8°C° 0 mm 7 mps 749 mmHg 73%
    04:00 +8°C° 0 mm 7 mps 749 mmHg 74%
    05:00 +8°C° 0 mm 7 mps 749 mmHg 75%
    06:00 +8°C° 0 mm 7 mps 749 mmHg 76%
    07:00 +8°C° 0 mm 7 mps 750 mmHg 75%
    08:00 +9°C° 0 mm 7 mps 750 mmHg 75%
    09:00 +9°C° 0 mm 7 mps 750 mmHg 75%
    10:00 +9°C° 0 mm 7 mps 751 mmHg 75%
    11:00 +9°C° 0 mm 7 mps 751 mmHg 76%
    12:00 +10°C° 0 mm 7 mps 751 mmHg 76%
    13:00 +10°C° 0.1 mm 7 mps 751 mmHg 78%
    14:00 +9°C° 0.1 mm 6 mps 752 mmHg 79%
    15:00 +9°C° 0.1 mm 6 mps 752 mmHg 80%
    16:00 +9°C° 0.6 mm 6 mps 752 mmHg 84%
    17:00 +9°C° 0.6 mm 5 mps 752 mmHg 87%
    18:00 +8°C° 0.6 mm 5 mps 752 mmHg 90%
    19:00 +8°C° 0.9 mm 5 mps 752 mmHg 91%
    20:00 +8°C° 0.9 mm 5 mps 752 mmHg 92%
    21:00 +8°C° 0.9 mm 5 mps 752 mmHg 92%
    22:00 +9°C° 0.6 mm 5 mps 752 mmHg 93%
    23:00 +9°C° 0.6 mm 5 mps 752 mmHg 93%
    Show more